[ hide orbit diagram ]
For accurate long-term ephemerides, please instead use our Horizons system.This orbit viewer was implemented using two-body methods, and hence should not be used for determining accurate long-term trajectories (over several years or decades) or planetary encounter circumstances.
Orbital Elements at Epoch 2459000.5 (2020-May-31.0) TDB
Reference: JPL 12 (heliocentric ecliptic J2000)
Element | Value | Uncertainty (1-sigma) | Units |
e | .2203078056900725 | 8.4115e-08 | |
a | 2.55228305338182 | 1.8097e-08 | au |
q | 1.989995174391314 | 2.2509e-07 | au |
i | 4.27127807259501 | 5.2236e-06 | deg |
node | 299.7590015808634 | 9.0461e-05 | deg |
peri | 165.2182080940563 | 9.2078e-05 | deg |
M | 277.1021992526109 | 2.1292e-05 | deg |
tp | 2459343.451092281135 (2021-May-08.95109228) | 9.0845e-05 | TDB |
period | 1489.332552951919 4.08 | 1.584e-05 4.337e-08 | d yr |
n | .2417190165396338 | 2.5708e-09 | deg/d |
Q | 3.114570932372327 | 2.2083e-08 | au |
|
| | Orbit Determination Parameters
Additional Information
|
[ show covariance matrix ]
Physical Parameter Table
Parameter |
Symbol |
Value |
Units |
Sigma |
Reference |
Notes |
absolute magnitude |
H |
17.1 |
|
n/a |
MPO455506 |
|
|
344175 (2001 BO30) Discovered 2001-Jan-20 by LINEAR at Socorro |
Reference: 20121128/Numbers.arc | Last Updated: 2012-12-03 |
|
[ hide close-approach data ]
Close-Approach Data ...sorted by Date/Time (TDB)
|
Date/Time (TDB) |
Time Uncertainty (days_HH:MM) |
Body |
Nominal Distance (au) |
Minimum Distance (au) |
Maximum Distance (au) |
V-relative (km/s) |
V-infinity (km/s) |
JD (TDB) |
Time Uncertainty (minutes) |
Semi-major axis (km) |
Semi-minor axis (km) |
range-LOV angle (deg) |
N-sigma |
BP |
Orbit Ref. |
Reference |
Modified |
2027-Apr-01 11:26 |
00:05 |
Inter |
0.0359788801569559 |
0.0359665070538038 |
0.035991253556909 |
5.45972249486213 |
5.45972242033739 |
2461496.976097370 |
5.34127594227441 |
639.772816292294 |
178.891709213336 |
16.0859854670135 |
11606.1053632545 |
T |
12 |
CATAB v2.0f-lin.ifort 2020-Dec-18 00:55:49 |
2020-Dec-18 00:55 |
|
|